Regional Weather Roundup
Issued by NWS

Home | Current Version | Previous Version | Text Only | Print | Product List | Glossary Off
Versions: 1 2 3 4 5 6 7 8 9 10 11 12 13 14 15 16 17 18 19 20 21 22 23 24 25 26 27 28 29 30 31 32 33 34 35 36 37 38 39 40 41 42 43 44 45 46 47 48 49 50

000
ASUS43 KFSD 200702
RWRSD

WEATHER ROUNDUP FOR SOUTH DAKOTA
NATIONAL WEATHER SERVICE SIOUX FALLS SD
200 AM CDT WED AUG 20 2014

NOTE: "FAIR" INDICATES FEW OR NO CLOUDS BELOW 12,000 FEET WITH NO
SIGNIFICANT WEATHER AND/OR OBSTRUCTIONS TO VISIBILITY.


SDZ001>005-009-010-012>017-200800-
NORTHWEST AND NORTH CENTRAL SOUTH DAKOTA

CITY           SKY/WX    TMP DP  RH WIND       PRES   REMARKS
BUFFALO          N/A     72  59  63 SE13      29.65S
FAITH            N/A     71  62  73 SE15      29.72S
MOBRIDGE       CLEAR     67  63  87 SE7       29.70F
$$

SDZ012>016-024>037-041>051-057-063-072>074-200800-
SOUTHWEST AND SOUTH CENTRAL SOUTH DAKOTA

CITY           SKY/WX    TMP DP  RH WIND       PRES   REMARKS
RAPID CTY ARPT CLOUDY    71  56  58 S10       29.75S
PIERRE         TSTM      66  62  87 S17       29.77S
CUSTER         CLOUDY    66  49  54 S6        29.90S
ELLSWORTH AFB  CLOUDY    72  59  62 S9        29.73F
PHILIP         PTCLDY    71  63  75 NE13      29.68S
PINE RIDGE     CLOUDY    72  60  66 SE9       29.78S
WINNER         FAIR      73  66  78 E9        29.73F
$$

SDZ004>011-016>023-039-040-200800-
NORTHEAST SOUTH DAKOTA

CITY           SKY/WX    TMP DP  RH WIND       PRES   REMARKS
ABERDEEN       CLEAR     62  61  96 SE6       29.75F
WATERTOWN      CLEAR     64  60  87 SE3       29.80F
SISSETON         N/A     63  63 100 S5        29.77F
$$

SDZ017-020-022-023-036>040-048>070-200800-
SOUTHEAST SOUTH DAKOTA

CITY           SKY/WX    TMP DP  RH WIND       PRES   REMARKS
SIOUX FALLS    CLEAR     67  63  87 SE5       29.80F
HURON          PTCLDY    67  61  81 SE8       29.74F
CHAMBERLAIN    CLOUDY    69  65  87 SE9       29.74S
MITCHELL       MOCLDY    68  63  84 SE8       29.76F
YANKTON        MOCLDY    66  64  94 NE8       29.77F
$$

ABBREVIATIONS USED IN REMARKS
   TC - TEMPERATURE IN CELSIUS
  WCI - WIND CHILL INDEX
   HX - HEAT INDEX
  VSB - VISIBILITY




USA.gov is the U.S. government's official web portal to all federal, state and local government web resources and services.